When you browse on this site, cookies collect data to enhance your experience and personalize the content and advertising you see.
Visit our Privacy Policy to learn more. By continuing to use the site, you agree to this use of cookies and data.
  • In Schweiz
  • Länderverzeichnis
  • Für 7 Tage
  • Wassertemperatur
  • Wetterkarte
  • Widgets
  • user-avatar
    Anmelden

    Stündliche Wetter Ulanovka

    Heute, 24 August, Samstag

    Zeit Temperatur Niederschläge Wind Luftdruck Luftfeuchtigkeit
    00:00 +15°C° 0 mm 2 m/S 751 mmHg 82%
    01:00 +14°C° 0 mm 2 m/S 751 mmHg 83%
    02:00 +14°C° 0 mm 1 m/S 751 mmHg 84%
    03:00 +14°C° 0 mm 1 m/S 751 mmHg 85%
    04:00 +14°C° 0 mm 1 m/S 751 mmHg 86%
    05:00 +14°C° 0 mm 1 m/S 751 mmHg 86%
    06:00 +12°C° 0 mm 0 m/S 751 mmHg 87%
    07:00 +14°C° 0 mm 0 m/S 751 mmHg 82%
    08:00 +16°C° 0 mm 0 m/S 751 mmHg 76%
    09:00 +18°C° 0 mm 0 m/S 751 mmHg 71%
    10:00 +21°C° 0 mm 1 m/S 751 mmHg 66%
    11:00 +22°C° 0 mm 1 m/S 751 mmHg 62%
    12:00 +23°C° 0 mm 1 m/S 751 mmHg 57%
    13:00 +23°C° 0 mm 2 m/S 750 mmHg 56%
    14:00 +24°C° 0 mm 2 m/S 750 mmHg 54%
    15:00 +24°C° 0 mm 2 m/S 750 mmHg 52%
    16:00 +24°C° 0 mm 2 m/S 749 mmHg 57%
    17:00 +23°C° 0 mm 2 m/S 749 mmHg 62%
    18:00 +21°C° 0 mm 2 m/S 748 mmHg 67%
    19:00 +20°C° 0 mm 2 m/S 748 mmHg 70%
    20:00 +18°C° 0 mm 2 m/S 748 mmHg 73%
    21:00 +17°C° 0 mm 2 m/S 749 mmHg 76%
    22:00 +16°C° 0 mm 2 m/S 748 mmHg 77%
    23:00 +16°C° 0 mm 3 m/S 748 mmHg 79%

    Morgen, 25 August, Sonntag

    Zeit Temperatur Niederschläge Wind Luftdruck Luftfeuchtigkeit
    00:00 +16°C° 0 mm 3 m/S 748 mmHg 80%
    01:00 +14°C° 0 mm 3 m/S 748 mmHg 83%
    02:00 +14°C° 0 mm 3 m/S 748 mmHg 86%
    03:00 +14°C° 0 mm 3 m/S 748 mmHg 89%
    04:00 +13°C° 0 mm 3 m/S 748 mmHg 91%
    05:00 +13°C° 0 mm 3 m/S 748 mmHg 93%
    06:00 +13°C° 0 mm 3 m/S 748 mmHg 94%
    07:00 +14°C° 0 mm 3 m/S 748 mmHg 88%
    08:00 +15°C° 0 mm 4 m/S 749 mmHg 81%
    09:00 +18°C° 0 mm 4 m/S 749 mmHg 74%
    10:00 +18°C° 0 mm 4 m/S 749 mmHg 70%
    11:00 +19°C° 0 mm 5 m/S 750 mmHg 66%
    12:00 +20°C° 0 mm 5 m/S 750 mmHg 62%
    13:00 +20°C° 0 mm 5 m/S 750 mmHg 62%
    14:00 +20°C° 0 mm 5 m/S 750 mmHg 61%
    15:00 +21°C° 0 mm 5 m/S 750 mmHg 61%
    16:00 +20°C° 0 mm 4 m/S 750 mmHg 64%
    17:00 +20°C° 0 mm 3 m/S 750 mmHg 68%
    18:00 +19°C° 0 mm 3 m/S 750 mmHg 71%
    19:00 +18°C° 0 mm 2 m/S 751 mmHg 74%
    20:00 +16°C° 0 mm 2 m/S 751 mmHg 78%
    21:00 +15°C° 0 mm 2 m/S 751 mmHg 81%
    22:00 +14°C° 0 mm 2 m/S 752 mmHg 83%
    23:00 +14°C° 0 mm 2 m/S 752 mmHg 85%

    übermorgen, 26 August, Montag

    Zeit Temperatur Niederschläge Wind Luftdruck Luftfeuchtigkeit
    00:00 +13°C° 0 mm 1 m/S 752 mmHg 86%
    01:00 +13°C° 0 mm 1 m/S 752 mmHg 87%
    02:00 +12°C° 0 mm 1 m/S 752 mmHg 88%
    03:00 +11°C° 0 mm 0 m/S 753 mmHg 89%
    04:00 +11°C° 0 mm 0 m/S 752 mmHg 89%
    05:00 +11°C° 0 mm 0 m/S 752 mmHg 89%
    06:00 +11°C° 0 mm 0 m/S 752 mmHg 88%
    07:00 +12°C° 0 mm 0 m/S 753 mmHg 82%
    08:00 +14°C° 0 mm 0 m/S 753 mmHg 76%
    09:00 +16°C° 0 mm 0 m/S 753 mmHg 70%
    10:00 +17°C° 0 mm 0 m/S 753 mmHg 66%
    11:00 +18°C° 0 mm 0 m/S 753 mmHg 63%
    12:00 +19°C° 0 mm 0 m/S 752 mmHg 59%
    13:00 +21°C° 0 mm 1 m/S 752 mmHg 58%
    14:00 +22°C° 0 mm 1 m/S 752 mmHg 57%
    15:00 +21°C° 0 mm 2 m/S 751 mmHg 56%
    16:00 +20°C° 0 mm 2 m/S 751 mmHg 59%
    17:00 +20°C° 0 mm 2 m/S 751 mmHg 63%
    18:00 +20°C° 0 mm 2 m/S 750 mmHg 66%
    19:00 +19°C° 0 mm 2 m/S 750 mmHg 69%
    20:00 +17°C° 0 mm 2 m/S 750 mmHg 71%
    21:00 +16°C° 0 mm 2 m/S 749 mmHg 74%
    22:00 +15°C° 0 mm 2 m/S 749 mmHg 75%
    23:00 +14°C° 0 mm 3 m/S 749 mmHg 77%

    27 August, Dienstag

    Zeit Temperatur Niederschläge Wind Luftdruck Luftfeuchtigkeit
    00:00 +14°C° 0 mm 3 m/S 749 mmHg 78%
    01:00 +14°C° 0 mm 3 m/S 748 mmHg 78%
    02:00 +13°C° 0 mm 3 m/S 748 mmHg 78%
    03:00 +13°C° 0 mm 4 m/S 748 mmHg 78%
    04:00 +13°C° 0 mm 4 m/S 747 mmHg 79%
    05:00 +13°C° 0 mm 4 m/S 747 mmHg 81%
    06:00 +13°C° 0 mm 4 m/S 747 mmHg 83%
    07:00 +14°C° 0 mm 4 m/S 746 mmHg 80%
    08:00 +16°C° 0 mm 5 m/S 746 mmHg 78%
    09:00 +17°C° 0 mm 5 m/S 746 mmHg 76%
    10:00 +19°C° 0.1 mm 5 m/S 745 mmHg 72%
    11:00 +20°C° 0.1 mm 6 m/S 745 mmHg 68%
    12:00 +22°C° 0.1 mm 6 m/S 744 mmHg 64%
    13:00 +21°C° 0.8 mm 6 m/S 744 mmHg 66%
    14:00 +21°C° 0.8 mm 6 m/S 743 mmHg 67%
    15:00 +21°C° 0.8 mm 7 m/S 743 mmHg 69%
    16:00 +20°C° 0.6 mm 6 m/S 743 mmHg 72%
    17:00 +19°C° 0.6 mm 6 m/S 743 mmHg 74%
    18:00 +19°C° 0.6 mm 5 m/S 742 mmHg 76%
    19:00 +16°C° 0 mm 5 m/S 743 mmHg 78%
    20:00 +15°C° 0 mm 6 m/S 743 mmHg 80%
    21:00 +13°C° 0 mm 6 m/S 744 mmHg 81%
    22:00 +11°C° 0 mm 6 m/S 744 mmHg 81%
    23:00 +9°C° 0 mm 6 m/S 745 mmHg 80%

    28 August, Mittwoch

    Zeit Temperatur Niederschläge Wind Luftdruck Luftfeuchtigkeit
    00:00 +8°C° 0 mm 6 m/S 746 mmHg 79%
    01:00 +7°C° 0 mm 5 m/S 746 mmHg 79%
    02:00 +6°C° 0 mm 5 m/S 746 mmHg 79%
    03:00 +5°C° 0 mm 5 m/S 746 mmHg 79%
    04:00 +5°C° 0 mm 5 m/S 747 mmHg 80%
    05:00 +5°C° 0 mm 4 m/S 747 mmHg 80%
    06:00 +5°C° 0 mm 4 m/S 747 mmHg 80%
    07:00 +6°C° 0 mm 5 m/S 747 mmHg 75%
    08:00 +7°C° 0 mm 6 m/S 747 mmHg 71%
    09:00 +8°C° 0 mm 7 m/S 747 mmHg 67%
    10:00 +9°C° 0 mm 7 m/S 747 mmHg 64%
    11:00 +10°C° 0 mm 7 m/S 747 mmHg 61%
    12:00 +11°C° 0 mm 7 m/S 747 mmHg 59%
    13:00 +11°C° 0 mm 7 m/S 747 mmHg 57%
    14:00 +11°C° 0 mm 7 m/S 747 mmHg 56%
    15:00 +12°C° 0 mm 7 m/S 747 mmHg 55%
    16:00 +11°C° 0 mm 6 m/S 747 mmHg 58%
    17:00 +12°C° 0 mm 5 m/S 748 mmHg 61%
    18:00 +10°C° 0 mm 5 m/S 748 mmHg 65%
    19:00 +10°C° 0 mm 4 m/S 748 mmHg 68%
    20:00 +8°C° 0 mm 4 m/S 748 mmHg 72%
    21:00 +7°C° 0 mm 3 m/S 748 mmHg 76%
    22:00 +7°C° 0 mm 3 m/S 749 mmHg 78%
    23:00 +5°C° 0 mm 3 m/S 749 mmHg 80%

    29 August, Donnerstag

    Zeit Temperatur Niederschläge Wind Luftdruck Luftfeuchtigkeit
    00:00 +5°C° 0 mm 3 m/S 749 mmHg 82%
    01:00 +5°C° 0 mm 3 m/S 749 mmHg 83%
    02:00 +4°C° 0 mm 3 m/S 749 mmHg 83%
    03:00 +4°C° 0 mm 3 m/S 749 mmHg 84%
    04:00 +4°C° 0 mm 3 m/S 749 mmHg 85%
    05:00 +4°C° 0 mm 4 m/S 749 mmHg 85%
    06:00 +4°C° 0 mm 4 m/S 749 mmHg 85%
    07:00 +5°C° 0 mm 4 m/S 749 mmHg 80%
    08:00 +7°C° 0 mm 5 m/S 749 mmHg 74%
    09:00 +8°C° 0 mm 5 m/S 749 mmHg 68%
    10:00 +9°C° 0 mm 5 m/S 749 mmHg 65%
    11:00 +11°C° 0 mm 6 m/S 749 mmHg 62%
    12:00 +13°C° 0 mm 6 m/S 748 mmHg 59%
    13:00 +13°C° 0 mm 6 m/S 748 mmHg 58%
    14:00 +14°C° 0 mm 6 m/S 748 mmHg 56%
    15:00 +14°C° 0 mm 6 m/S 748 mmHg 55%
    16:00 +13°C° 0 mm 6 m/S 748 mmHg 58%
    17:00 +12°C° 0 mm 5 m/S 748 mmHg 62%
    18:00 +12°C° 0 mm 5 m/S 748 mmHg 65%
    19:00 +10°C° 0 mm 4 m/S 748 mmHg 70%
    20:00 +8°C° 0 mm 4 m/S 748 mmHg 75%
    21:00 +7°C° 0 mm 3 m/S 748 mmHg 79%
    22:00 +7°C° 0 mm 3 m/S 749 mmHg 81%
    23:00 +7°C° 0 mm 3 m/S 749 mmHg 82%
    Mehr zeigen